Home   Weather   Joinville   Past weeks

Flag for Brazil Past Weather in Joinville, Santa Catarina, Brazil — Yesterday and Last 2 Weeks

Now
66 °F

Passing clouds.


Feels Like: 66 °F
Forecast: 69 / 74 °F
Wind: 5 mph from South

Location: Curitiba Aeroporto

Current Time: Dec 9, 2016 at 3:52:05 am

Latest Report: Dec 9, 2016 at 3:00 am


Visibility: 5 mi

Pressure: 29.92 "Hg

Humidity: 94%

Dew Point: 64 °F

Location of JoinvilleLocation

Past Weather in Joinville — Graph

°F

Joinville Temperature Yesterday

Maximum temperature yesterday: 82 °F (at 1:00 pm)
Minimum temperature yesterday: 63 °F (at 4:00 am)
Average temperature yesterday: 70 °F

High & Low Weather Summary for the Past Weeks

 TemperatureHumidityPressure
High88 °F (Nov 27, 4:00 pm)100% (Nov 25, 5:49 pm)30.30 "Hg (Nov 25, 5:49 pm)
Low52 °F (Dec 5, 5:00 am)26% (Dec 6, 1:00 pm)29.71 "Hg (Dec 4, 5:00 am)
Average66 °F82%30.02 "Hg
* Reported Nov 24 6:00 am — Dec 9 2:00 am, Joinville, Weather by CustomWeather, © 2016

Note: Actual official high and low records may vary slightly from our data, if they occured in-between our weather recording intervals... More about our weather records

Advertising

Joinville Weather History for the Previous 24 Hours

Scroll right to see more
 ConditionsComfort  
Time TempWeatherWind HumidityBarometerVisibility
2:00 am
Fri, Dec 9
66 °FPassing clouds.2 mph94%29.92 "HgN/A
1:00 am66 °FPassing clouds.2 mph94%29.95 "HgN/A
12:00 am66 °FPassing clouds.2 mph100%29.95 "Hg5 mi
11:00 pm
Thu, Dec 8
68 °FPassing clouds.2 mph94%29.95 "Hg5 mi
10:00 pm68 °FPassing clouds.5 mph94%29.95 "HgN/A
9:00 pm66 °FThundershowers. Passing clouds.2 mph94%29.92 "HgN/A
8:00 pm68 °FPassing clouds.2 mph94%29.92 "HgN/A
7:00 pm68 °FBroken clouds.2 mph94%29.92 "HgN/A
6:00 pm66 °FLight rain. Partly sunny.3 mph100%29.89 "Hg5 mi
5:00 pm66 °FThunderstorms. Low clouds.13 mph94%29.92 "Hg3 mi
4:00 pm70 °FPartly sunny.9 mph88%30.30 "HgN/A
3:00 pm73 °FBroken clouds.12 mph65%29.89 "HgN/A
2:00 pm81 °FPartly sunny.10 mph54%29.89 "HgN/A
1:00 pm82 °FPartly sunny.14 mph48%29.89 "HgN/A
12:00 pm79 °FScattered clouds.7 mph65%29.92 "HgN/A
11:00 am79 °FPassing clouds.5 mph61%29.92 "HgN/A
10:00 am77 °FSunny.3 mph65%29.95 "Hg10 mi
9:00 am73 °FSunny.6 mph78%29.95 "Hg10 mi
8:00 am68 °FSunny.3 mph88%29.95 "Hg10 mi
7:00 am63 °FSunny.3 mph100%29.95 "Hg10 mi
6:00 am64 °FPassing clouds.2 mph94%29.95 "HgN/A
5:00 am63 °FPassing clouds.2 mph100%29.92 "HgN/A
4:00 am63 °FPassing clouds.2 mph100%29.92 "HgN/A
3:00 am64 °FPassing clouds.3 mph94%29.92 "HgN/A
Weather by CustomWeather, © 2016

See weather overviewHow to use our weather pages